Wind_Speed
59 57 54 52 52 52 53 53 53 54 53 53 53 53 52 52 54 55 51 53 63 66 67 72 73 72 73 68 63 60 61 66 65 60 58 56 55 53 50 48 44 40 41 43 43 45 45 43 43 44 43 43 44 45 47 47 45 44 43 44 45 46 47 47 47 47 47 46 45 46 48 50 51 52 52 51 49 48 47 45 44 46 45 44 44 48
58 55 53 54 54 54 54 54 54 54 53 53 52 52 52 51 51 53 50 49 56 61 64 70 72 72 73 69 63 60 61 66 65 61 59 56 55 53 50 49 46 42 42 41 39 41 41 41 41 42 43 45 47 48 48 48 46 44 43 44 46 47 48 47 47 47 47 46 46 48 50 51 51 51 51 50 49 48 46 43 42 44 45 44 44 47
57 55 55 56 56 56 55 55 55 54 53 52 51 51 51 50 49 52 52 48 50 54 58 65 67 69 72 68 64 62 61 65 65 62 59 56 55 51 50 51 46 43 44 43 43 44 42 40 41 42 44 44 45 44 45 45 45 44 44 45 46 47 48 48 48 47 47 47 49 51 51 51 51 51 51 50 49 48 45 43 42 42 44 45 44 46
57 56 57 58 58 57 56 55 55 55 54 51 50 50 50 51 49 51 54 48 45 49 55 58 60 65 66 60 60 62 61 63 65 63 58 53 52 51 51 51 45 44 45 43 45 47 45 45 45 43 42 42 41 42 43 43 44 45 45 45 46 47 47 48 48 48 48 49 51 52 52 52 51 51 51 50 49 47 45 43 41 41 42 43 43 44
59 59 61 60 59 58 57 57 56 55 53 51 51 50 51 52 50 52 55 47 43 48 54 55 55 60 58 50 52 58 60 64 65 64 59 52 49 48 49 48 45 45 45 44 48 50 50 51 47 42 40 39 39 41 43 44 45 46 45 45 46 47 47 48 48 49 50 51 52 52 53 53 52 51 50 50 49 47 45 43 41 40 41 42 42 42
61 62 62 61 60 59 58 57 57 56 53 51 51 51 53 53 50 54 54 46 45 48 50 51 53 56 52 46 48 52 56 62 64 63 58 53 49 48 47 46 45 47 50 54 58 55 51 49 48 46 45 42 40 42 43 44 45 45 45 45 47 48 48 49 49 50 51 52 53 53 53 53 53 52 51 50 49 47 44 43 41 40 40 40 41 40
63 63 63 62 61 60 58 57 57 56 53 51 52 52 54 53 51 56 52 45 46 46 49 52 52 53 50 46 49 48 51 57 58 58 55 52 51 50 51 50 47 48 51 57 59 55 51 50 52 53 52 50 47 44 43 44 47 47 47 47 48 48 50 50 51 52 53 53 54 54 55 54 53 53 52 51 49 46 44 42 41 41 40 40 40 40
64 64 63 62 61 60 59 57 57 56 53 51 53 53 54 52 52 57 52 45 46 46 50 52 50 51 49 48 50 48 50 53 52 52 52 49 48 48 49 50 50 51 52 54 56 57 57 56 56 54 51 51 50 47 45 47 49 49 48 48 48 49 51 52 53 54 54 54 55 55 56 55 55 54 53 52 49 46 44 42 41 40 39 39 40 40
65 65 64 63 62 60 59 58 58 57 53 53 55 54 53 53 54 56 52 48 47 45 48 50 49 50 49 48 50 47 49 50 48 49 49 45 44 47 47 48 50 52 53 54 57 58 57 57 56 53 49 49 50 48 49 50 51 50 49 49 50 52 54 54 54 54 54 55 55 56 57 57 56 56 55 53 49 47 45 42 41 40 39 40 41 41
67 65 66 65 63 61 60 61 59 56 54 55 56 54 54 55 54 55 54 51 47 43 46 50 49 49 50 49 49 46 46 47 46 48 46 41 41 46 49 49 51 53 52 54 57 54 51 52 53 52 49 49 50 51 52 53 53 52 52 52 54 55 55 55 55 55 55 55 56 57 57 58 57 57 56 53 50 47 45 43 42 40 40 40 39 40
67 67 67 64 62 63 63 62 60 56 56 58 56 55 55 55 54 55 54 52 46 43 45 49 48 48 49 49 46 45 46 46 46 45 41 39 39 42 45 48 53 55 54 57 59 56 52 50 49 50 50 52 53 54 54 55 55 55 55 56 57 56 56 55 54 55 55 56 57 57 58 58 59 58 56 53 50 48 47 45 44 42 42 40 38 40
69 68 66 63 63 65 63 61 60 58 58 60 58 56 56 55 55 54 53 51 44 41 44 48 48 46 46 47 45 43 45 46 44 41 39 39 40 41 44 49 54 55 56 60 62 60 58 55 52 52 53 55 57 57 57 57 57 58 58 58 57 56 55 54 54 54 55 56 57 58 59 59 59 58 56 53 51 49 48 47 46 44 43 41 40 43
70 67 66 66 65 64 62 61 62 60 59 61 60 58 58 56 55 53 52 49 42 41 44 47 48 46 45 48 44 40 44 44 38 36 38 40 43 46 48 53 58 59 61 64 64 60 58 58 57 56 56 57 58 59 59 59 58 58 58 57 56 55 54 54 54 55 56 56 57 58 59 59 59 57 55 53 51 50 49 48 46 45 44 42 42 44
72 68 68 68 65 62 63 63 63 61 61 62 60 59 58 55 53 51 51 49 43 43 45 47 51 50 46 46 43 39 41 39 32 33 38 40 41 45 48 53 59 63 65 67 66 63 60 59 59 58 58 58 59 60 60 59 58 58 57 56 55 54 54 54 54 55 56 56 57 59 59 60 59 57 54 52 52 51 50 48 46 44 41 39 40 41
74 71 69 67 63 61 64 66 64 61 63 63 61 61 58 53 52 52 52 50 47 47 47 50 54 50 44 44 42 40 39 34 31 35 41 43 42 42 46 50 55 59 62 65 66 64 62 61 60 60 60 60 61 61 60 59 58 57 56 54 54 54 55 55 55 55 55 56 58 59 59 59 58 55 53 52 52 51 49 47 46 44 38 34 34 36
75 73 71 69 66 64 65 67 65 64 64 64 63 63 58 53 53 54 53 52 52 51 50 52 54 48 43 43 40 40 38 34 35 38 42 47 46 43 45 48 51 53 56 60 63 64 63 62 61 60 60 60 61 62 60 59 57 56 55 54 54 54 55 55 55 55 55 57 58 58 59 59 56 54 52 52 51 49 46 45 44 42 37 30 29 32
76 75 75 73 70 68 67 67 67 66 66 65 64 62 57 55 57 57 55 55 55 53 50 52 52 47 44 43 40 39 38 37 38 39 40 45 45 43 44 47 49 51 53 56 59 62 64 62 60 59 59 59 60 60 59 57 56 56 55 55 54 55 55 55 54 54 55 56 57 57 58 57 54 52 51 50 48 46 44 43 41 39 35 28 27 30
75 77 78 76 72 70 68 70 72 70 68 67 65 62 60 61 61 59 57 57 56 53 51 52 51 48 47 45 42 40 39 39 41 42 42 43 44 44 45 47 48 50 52 54 55 58 62 63 61 59 58 59 59 59 57 57 56 56 55 55 55 55 54 54 53 54 55 56 56 57 57 56 53 51 49 48 45 44 43 40 37 34 30 25 24 24
72 77 80 79 75 72 71 73 75 73 68 66 65 65 65 64 62 60 59 58 56 53 53 54 53 50 49 47 44 44 44 43 43 43 44 45 46 46 47 48 49 51 52 53 53 55 58 62 63 61 59 58 59 59 57 57 56 56 55 55 55 54 54 53 53 53 54 55 55 56 56 54 51 49 47 45 43 41 40 36 32 28 24 21 20 19
69 74 78 79 78 77 76 76 76 73 69 68 69 69 68 65 62 62 61 59 57 56 56 56 54 52 50 47 46 47 47 46 47 46 46 47 47 48 48 49 50 51 52 52 51 52 54 58 62 63 61 59 58 58 57 56 56 56 56 55 54 54 53 52 52 53 53 53 55 56 54 52 49 46 45 43 41 38 35 31 26 21 18 16 16 17
66 70 75 78 79 79 77 76 75 73 71 71 71 70 68 65 65 65 64 61 59 59 59 57 55 53 51 48 48 49 48 47 49 49 48 49 48 47 48 49 51 53 52 51 50 51 52 55 57 59 60 60 59 57 56 56 56 55 55 55 54 53 52 51 51 51 52 53 54 54 52 49 47 44 43 41 39 36 31 25 19 14 12 13 14 17
63 67 72 75 76 75 73 73 74 74 73 72 71 71 69 67 67 67 65 63 62 61 59 57 57 55 53 49 47 48 49 49 51 51 50 50 49 49 50 51 53 53 51 50 50 50 51 53 53 54 56 58 57 56 56 55 55 55 55 54 53 51 50 50 50 50 51 52 53 52 50 47 44 42 41 39 37 34 27 20 14 11 12 15 18 19
60 65 68 70 69 70 71 72 74 75 74 73 73 73 72 70 69 68 67 65 62 60 58 58 59 58 55 51 45 43 47 49 50 51 51 51 50 50 52 53 53 53 51 48 48 49 51 52 50 50 52 54 54 54 54 54 54 54 54 53 51 50 50 50 49 50 50 51 52 50 48 45 42 39 39 38 35 31 23 17 12 13 15 17 20 21
57 59 60 61 62 65 68 72 74 75 76 76 75 73 72 71 70 70 68 65 61 60 60 61 62 58 53 51 45 40 44 49 50 50 51 51 50 50 51 52 53 53 52 50 49 49 51 50 49 48 50 51 51 52 52 52 53 53 52 51 49 49 49 49 48 49 49 50 50 48 46 43 39 37 37 36 34 28 21 15 14 17 18 20 22 22
54 54 54 55 56 59 62 65 68 70 71 71 68 66 67 66 66 66 64 63 63 62 62 63 64 60 54 51 47 45 48 52 51 48 49 50 50 49 49 51 52 53 53 52 51 51 51 50 48 48 50 51 50 50 50 51 51 51 50 49 48 48 48 48 48 48 49 49 48 46 44 41 37 35 36 35 33 27 20 16 17 20 22 24 26 24
56 55 54 54 54 55 56 57 58 59 61 62 60 60 61 61 61 61 61 62 61 60 62 64 64 60 54 50 48 49 52 55 53 50 48 48 50 51 50 51 52 52 54 54 53 52 51 49 47 47 49 50 49 49 50 50 50 49 49 48 48 48 47 47 47 47 48 48 47 45 42 39 35 34 34 34 32 27 20 18 20 23 24 26 27 26
56 56 55 55 55 55 55 56 57 59 60 60 60 60 60 59 60 60 60 59 57 58 61 63 60 56 53 51 51 52 52 53 55 54 50 48 49 50 50 50 50 50 51 51 50 49 48 47 46 47 47 48 48 48 48 49 49 48 48 48 48 48 46 46 46 46 46 46 45 43 41 37 34 33 33 33 31 27 20 20 23 26 26 27 28 28
55 55 54 54 55 55 55 56 57 58 59 59 60 59 58 59 61 60 57 55 56 60 63 61 57 54 53 54 56 56 55 54 54 54 52 49 48 48 49 49 49 49 48 48 48 48 46 45 45 45 46 46 47 47 47 47 48 48 48 48 48 47 46 46 46 45 46 45 44 42 39 36 33 32 32 32 31 27 21 21 25 28 29 29 30 30
55 55 54 54 54 54 54 55 55 56 57 57 58 58 57 60 62 59 56 56 60 65 64 60 57 56 56 56 56 57 58 57 55 53 52 51 49 48 48 49 50 50 51 51 49 47 44 43 44 44 44 44 45 47 47 47 47 48 48 48 47 46 46 46 45 45 45 45 43 41 39 36 33 32 32 31 30 28 23 22 26 30 32 32 32 32
56 55 54 54 54 54 54 54 53 54 55 55 56 56 56 59 61 61 60 62 66 69 64 59 57 57 56 57 58 58 58 58 56 54 53 52 50 50 50 50 51 51 51 52 50 47 45 45 45 45 45 44 45 47 47 47 48 48 48 48 47 46 46 46 45 45 45 44 43 41 38 36 34 32 31 31 30 29 25 22 26 32 34 34 34 32
56 56 55 54 55 55 54 53 52 52 53 54 55 56 56 58 62 65 66 68 70 69 63 59 58 58 56 56 58 58 58 58 56 55 55 54 53 53 53 52 52 51 50 51 51 50 48 47 46 46 46 45 46 47 48 48 48 48 48 48 47 47 46 46 45 45 46 45 43 41 39 37 35 33 32 31 30 30 27 24 26 32 37 37 35 33
56 55 54 55 55 54 52 52 52 52 52 53 56 58 59 62 65 67 67 67 67 64 60 58 59 58 58 58 58 57 57 56 53 52 54 55 55 55 55 55 55 53 51 51 52 53 51 49 48 47 46 46 47 48 48 48 48 48 48 48 48 47 47 46 46 46 46 45 44 42 41 39 37 35 33 32 30 30 29 26 26 32 39 41 39 36
55 54 54 55 55 52 51 51 51 51 50 51 53 55 58 63 65 64 63 62 62 61 59 59 59 60 60 60 59 55 52 51 49 48 51 54 54 54 55 56 57 56 54 53 53 53 53 52 49 47 46 46 47 48 49 48 48 48 48 49 49 48 47 47 47 47 47 46 45 44 43 41 40 37 35 34 32 30 31 29 27 31 39 44 45 41
54 54 55 54 53 51 49 49 49 47 45 44 46 50 55 61 62 61 60 58 58 59 60 60 61 62 62 60 60 56 51 48 47 47 48 50 52 54 55 55 56 56 56 55 53 53 53 52 50 47 46 46 47 48 49 49 49 49 49 50 50 49 49 48 48 48 47 47 46 46 45 44 43 40 38 37 34 31 31 31 30 30 36 44 48 47
53 53 52 51 51 50 47 45 45 43 39 38 41 46 50 55 58 59 60 59 58 58 61 62 62 63 62 59 58 58 56 52 50 50 50 52 54 54 54 53 54 55 55 55 53 52 51 51 50 48 47 47 48 49 50 50 50 50 50 51 51 50 50 50 50 49 49 48 48 47 47 46 45 43 41 40 38 34 31 31 32 32 34 40 47 51
50 50 50 49 50 50 47 44 42 40 38 38 39 39 40 46 53 57 58 60 61 60 59 59 60 60 61 60 57 55 54 53 51 51 53 54 56 56 54 52 51 52 53 53 53 52 50 49 49 47 47 47 49 50 51 51 51 51 51 52 52 52 51 51 51 51 50 50 50 49 49 48 48 46 45 43 42 39 35 32 32 34 35 38 44 51
47 48 48 47 48 49 48 45 42 41 41 40 41 42 41 43 46 48 49 52 58 60 59 57 56 56 56 58 56 52 50 49 50 51 52 54 55 55 55 54 53 52 52 52 52 52 51 49 48 47 47 48 50 51 52 52 52 52 52 53 53 53 53 53 53 52 52 52 52 52 51 51 50 50 48 47 45 43 40 35 32 33 36 39 42 47
43 45 46 47 49 49 48 47 46 45 44 42 43 46 47 45 43 43 45 47 49 53 54 53 53 53 52 53 54 53 51 52 53 54 54 54 52 50 52 54 55 54 53 51 51 51 50 49 49 48 48 49 50 52 53 54 54 53 53 54 54 54 55 55 54 54 54 54 54 54 54 53 53 53 52 51 49 47 45 41 36 33 35 39 43 46
36 39 42 45 48 49 48 48 48 48 47 46 44 44 46 46 44 44 46 46 45 46 47 47 49 49 50 52 54 54 54 55 56 56 55 52 49 48 49 52 53 54 53 51 51 51 50 50 49 49 50 50 51 53 54 55 55 55 55 55 56 56 56 56 56 56 56 56 56 56 56 56 56 56 55 54 53 51 49 46 43 37 35 38 43 47
33 36 39 41 45 47 49 49 49 48 47 46 46 45 45 46 46 45 45 45 45 44 44 45 47 49 51 54 56 55 56 58 59 59 57 54 52 51 51 51 52 53 53 51 51 51 51 51 51 51 51 52 53 54 56 56 56 56 56 56 56 56 57 57 58 58 58 58 59 59 59 59 59 58 58 57 56 54 53 51 48 44 39 37 41 47
30 31 34 37 40 43 46 48 48 47 45 45 46 46 47 48 47 44 42 42 43 43 42 43 45 46 49 54 56 56 55 57 59 61 60 59 56 54 52 52 52 52 52 52 52 52 52 52 52 52 52 53 54 56 57 57 57 57 57 57 57 58 58 59 59 60 60 61 61 61 61 61 61 61 60 60 58 57 56 55 53 50 46 41 40 45
30 30 31 32 33 35 38 42 44 44 45 46 45 45 46 47 45 41 40 42 43 43 45 46 47 46 46 49 53 55 55 55 57 58 59 59 58 56 54 53 52 52 52 53 53 52 52 52 52 53 53 54 56 57 58 58 59 59 59 59 59 59 60 60 61 62 62 63 63 63 64 64 64 63 63 62 61 60 59 58 57 55 52 48 44 44
33 33 33 33 33 33 35 37 40 42 44 44 42 41 41 42 42 41 42 45 46 47 49 51 52 51 49 48 49 51 53 54 55 55 55 56 56 56 55 54 53 53 53 53 53 53 53 53 53 54 54 56 57 57 58 59 59 60 60 60 60 60 61 62 63 63 64 65 65 66 66 66 66 66 65 65 64 63 62 61 60 59 56 53 50 46
36 36 36 35 36 36 36 37 40 42 43 41 40 39 39 41 44 46 48 49 50 50 51 52 54 55 54 53 52 51 51 52 52 53 52 53 54 56 56 56 56 55 54 53 53 54 54 54 55 55 56 57 57 58 59 59 60 60 61 61 61 62 63 64 65 65 66 67 67 68 68 68 68 68 68 67 67 66 65 64 63 62 59 56 52 48
39 39 39 40 41 41 41 42 43 44 43 43 42 42 43 44 46 49 52 53 53 52 52 53 54 56 56 56 53 51 49 49 49 50 51 52 53 55 56 56 56 55 55 55 55 55 55 55 56 56 57 58 58 59 60 60 61 61 62 63 63 64 65 65 66 67 68 69 69 70 70 71 71 71 70 70 69 68 68 67 66 64 61 57 52 49
42 42 43 44 45 45 45 46 46 46 46 46 44 43 43 43 44 46 49 51 52 54 55 55 55 55 55 54 51 49 48 48 48 49 51 52 53 54 54 55 55 55 56 56 56 55 55 56 56 57 58 58 59 60 60 61 62 63 63 64 65 66 66 67 68 69 70 70 71 72 72 73 73 73 72 72 71 71 70 70 68 64 60 55 51 49
43 43 44 45 45 46 46 46 47 47 47 46 45 43 43 44 44 45 45 46 47 49 50 52 51 50 50 51 50 49 49 50 50 51 51 52 53 53 53 54 55 55 56 57 56 55 55 55 56 57 58 58 59 60 61 62 63 64 65 66 66 67 68 69 69 70 71 72 73 74 74 74 74 74 74 74 74 74 73 71 67 63 58 54 51 50
45 45 45 45 46 47 48 48 49 48 47 47 46 46 46 46 46 46 46 46 46 47 47 49 49 49 50 51 52 52 52 52 52 52 51 51 52 53 53 54 55 56 57 57 56 55 55 56 57 58 58 59 60 61 62 63 64 65 66 67 68 69 70 70 71 72 73 74 75 75 76 76 76 76 76 76 76 75 73 69 65 61 58 55 53 51
48 48 48 47 47 48 49 50 50 49 48 48 48 48 48 48 48 48 48 48 49 49 50 51 51 52 53 53 54 54 54 53 52 51 51 51 53 53 53 54 55 56 57 57 57 57 57 57 58 58 59 60 61 62 63 64 65 66 67 68 69 70 71 72 73 74 75 76 76 77 77 77 77 77 77 76 75 72 69 67 64 61 59 57 55 54
49 49 49 49 48 48 48 49 49 48 49 50 50 50 50 50 50 51 51 52 52 52 53 54 54 55 55 55 54 54 53 52 51 51 51 52 54 54 54 54 55 56 56 57 58 58 59 59 60 60 61 62 63 64 65 66 67 68 69 70 71 72 73 74 75 76 77 77 77 78 78 78 79 78 76 73 70 68 66 65 64 63 61 60 59 58
52 52 52 51 50 50 50 50 51 51 52 52 52 52 52 52 52 53 53 54 55 55 55 55 55 55 54 54 53 53 52 52 51 51 51 52 53 54 54 55 56 56 56 57 58 58 59 60 61 61 63 63 64 65 66 67 68 69 71 72 73 74 75 76 76 77 78 78 79 79 79 79 77 75 72 70 68 66 65 65 64 64 63 63 62 61
Wind_Direction
234 235 235 235 234 234 234 233 234 234 234 234 234 235 235 235 237 239 234 232 237 238 238 241 242 243 244 243 242 242 245 248 249 249 248 248 249 250 250 252 250 252 260 263 261 259 257 258 257 255 257 259 262 267 268 268 267 264 263 265 267 270 272 274 277 279 281 282 285 288 292 294 296 297 297 297 296 295 293 289 283 278 273 266 259 253
233 234 233 233 232 233 233 233 234 235 235 235 235 236 236 237 238 240 237 231 235 238 238 241 242 243 245 244 242 241 243 248 249 248 248 248 249 250 251 251 249 250 253 254 254 252 252 254 256 259 263 264 265 266 264 263 263 261 262 265 267 271 274 276 279 280 282 284 287 291 294 296 298 299 299 298 298 296 293 289 283 276 272 267 260 255
233 233 232 231 231 231 232 232 234 234 235 236 236 237 237 237 237 240 239 232 234 239 239 241 243 243 245 244 242 241 242 246 249 248 247 247 248 249 249 249 248 246 247 251 253 253 255 256 259 264 266 265 263 260 260 261 262 262 264 267 269 272 275 277 279 281 283 286 290 293 295 297 299 300 300 299 298 297 293 289 283 276 271 267 262 257
231 230 229 229 229 229 230 231 232 233 234 235 236 237 238 238 237 240 241 234 232 238 240 241 243 244 245 244 244 242 241 244 247 247 246 245 246 246 246 248 246 241 243 252 256 256 258 260 263 262 259 259 258 257 257 258 260 262 264 266 269 272 274 276 278 281 284 288 292 294 296 298 299 299 300 300 298 296 292 288 283 277 271 267 264 259
228 227 227 227 228 228 229 230 231 233 234 234 235 235 236 237 236 239 241 237 231 235 240 242 243 245 247 246 245 244 243 243 245 247 246 244 245 245 244 246 243 237 237 245 253 258 260 261 258 252 252 256 254 256 258 257 259 262 263 265 268 271 274 276 279 283 286 290 292 295 297 298 299 300 300 300 299 295 292 288 284 278 272 267 264 260
227 227 227 227 228 229 229 230 232 233 234 234 234 234 236 237 236 238 240 238 235 236 241 243 243 246 248 246 244 243 243 244 245 248 249 247 245 244 243 243 241 236 234 238 247 253 256 255 250 248 254 257 255 258 258 257 259 261 262 265 268 272 275 277 281 285 288 291 293 295 297 299 300 301 301 301 299 295 292 289 284 279 273 268 265 261
226 227 228 228 228 229 230 230 232 234 234 233 234 234 237 238 237 239 240 237 237 237 239 242 243 247 248 245 243 241 242 244 245 247 248 246 244 242 242 241 240 239 237 238 243 246 248 250 251 254 256 254 255 258 255 255 259 260 262 266 270 273 276 280 284 287 289 292 294 295 297 299 300 301 302 301 299 295 291 288 285 281 276 271 266 262
226 227 228 229 229 230 230 231 232 234 233 233 235 235 237 238 237 240 242 237 235 235 238 242 244 247 247 245 245 242 241 244 244 245 246 243 242 242 242 241 240 240 239 240 243 244 247 250 251 252 253 251 253 256 254 255 258 260 264 268 271 275 278 282 285 288 290 292 294 297 299 301 302 302 303 301 299 296 292 289 285 281 277 272 267 263
226 227 228 229 229 230 230 231 232 233 233 232 235 236 237 238 238 241 243 238 234 234 240 244 245 247 248 246 247 246 245 247 247 247 248 246 244 243 243 242 240 239 239 240 242 244 247 249 247 246 250 251 251 253 254 255 259 264 268 271 274 277 280 283 286 288 291 293 295 298 300 302 303 303 303 302 299 296 294 291 286 281 275 270 266 263
225 226 227 228 229 229 229 231 232 232 233 233 235 236 238 239 240 241 242 241 235 232 238 244 245 247 248 247 248 248 248 249 248 248 249 250 248 244 244 245 244 242 242 242 243 244 246 247 246 245 249 251 251 254 256 259 265 269 271 273 276 278 281 283 286 289 291 294 296 298 300 302 304 304 304 302 300 298 295 292 287 281 274 269 267 264
224 225 227 227 228 229 229 231 232 231 233 235 235 237 238 240 241 241 242 243 238 233 238 244 245 246 248 249 249 249 249 248 247 248 249 248 247 245 244 246 248 246 246 246 247 246 246 248 246 246 249 251 253 257 260 264 268 270 272 274 276 277 280 283 286 289 292 295 297 299 301 303 304 305 304 302 300 298 296 293 288 283 275 268 263 260
225 225 227 227 227 230 230 230 233 232 233 236 236 236 239 240 241 242 243 244 240 236 239 244 244 244 248 250 248 247 249 248 249 250 249 245 242 240 236 237 242 245 245 247 248 248 249 251 251 250 252 252 254 258 261 264 266 268 271 272 274 277 280 284 287 290 293 295 297 300 302 303 305 305 304 302 300 299 297 295 292 287 280 272 260 253
227 226 227 228 227 229 231 231 233 233 234 237 237 237 239 240 242 243 244 244 241 238 241 245 245 243 245 249 247 246 249 251 251 251 251 247 241 238 233 233 237 239 240 244 246 248 250 252 253 253 254 254 256 258 260 263 265 267 269 271 274 278 281 284 287 290 293 295 298 300 302 304 305 304 303 302 301 300 299 297 294 288 282 276 266 254
227 226 227 229 228 228 231 232 233 234 235 238 240 240 241 242 244 246 247 246 243 242 243 246 247 243 243 249 250 250 252 254 252 245 246 247 243 240 238 237 237 238 239 242 243 245 247 249 251 252 254 255 257 259 261 263 265 267 269 271 275 278 282 285 288 290 293 296 298 300 303 304 305 304 303 303 302 301 301 299 295 289 282 275 267 258
226 226 227 229 229 228 231 234 233 233 235 237 239 241 241 242 245 246 247 248 246 245 245 247 248 247 248 251 253 253 253 253 247 238 238 242 243 243 241 241 241 241 241 242 242 243 244 247 249 251 253 255 257 259 261 264 265 267 269 272 275 279 282 285 287 290 293 296 298 301 303 305 305 305 304 304 304 303 303 301 297 293 286 275 262 256
225 226 226 227 227 227 229 233 234 233 235 236 238 240 241 242 243 244 245 245 245 245 245 248 250 251 251 253 254 255 254 250 245 240 238 241 245 245 243 243 243 244 244 244 243 242 243 246 250 252 253 255 257 260 262 264 265 267 270 273 276 279 282 285 287 291 293 296 299 302 304 305 305 305 305 305 304 305 304 301 298 293 287 277 256 249
225 226 227 226 226 226 227 230 233 233 234 236 238 240 241 241 241 242 243 244 244 245 247 250 252 252 253 253 253 254 254 250 246 243 241 242 244 245 245 245 245 246 247 247 245 243 243 245 248 250 252 255 258 260 262 264 266 268 270 273 276 279 282 284 287 291 294 297 300 303 305 305 305 305 305 305 305 307 306 302 297 291 285 274 252 244
226 226 227 227 226 227 228 229 231 231 231 234 237 239 239 239 240 242 243 244 246 246 248 251 252 252 252 252 251 249 249 248 246 244 244 243 245 245 245 246 247 248 249 249 248 246 243 244 246 249 251 254 257 260 262 265 267 268 270 273 276 279 282 284 288 291 294 298 301 303 305 305 305 305 305 306 307 309 308 303 298 291 282 269 251 242
227 226 227 227 226 226 227 229 232 232 232 234 237 238 238 239 241 243 244 245 247 248 249 251 251 251 252 252 250 246 245 246 245 245 246 246 247 247 246 247 248 248 249 249 249 248 246 244 245 247 250 253 256 259 262 265 266 268 270 273 276 279 282 285 289 292 295 299 302 304 306 305 305 305 305 307 310 312 310 304 296 288 274 261 250 234
227 227 227 227 227 226 226 229 232 233 233 235 237 238 239 240 242 243 244 245 247 248 248 250 251 251 252 251 248 246 245 246 245 246 246 246 246 246 246 249 251 251 250 249 249 250 248 246 245 246 249 253 256 259 262 264 266 268 270 273 276 279 282 286 289 292 296 300 302 305 305 304 304 305 306 309 314 316 311 301 289 278 263 251 238 216
226 228 228 228 227 227 228 231 234 234 234 235 237 239 241 242 243 243 244 245 246 246 247 248 249 249 249 248 247 247 248 248 247 247 248 247 246 246 248 250 253 253 252 252 253 252 251 250 247 247 249 252 256 259 262 264 266 268 270 273 276 279 282 286 289 293 297 300 303 305 304 304 304 305 307 311 317 318 310 294 278 261 241 224 205 192
225 228 229 229 228 228 229 232 235 235 235 236 237 239 240 240 242 243 244 245 244 245 246 247 247 246 245 245 246 249 250 249 249 250 250 249 249 250 250 251 252 253 253 255 256 255 255 253 251 249 250 253 256 259 262 264 265 267 270 272 276 279 283 287 290 294 297 300 303 304 303 303 304 306 309 313 319 318 305 286 263 231 211 201 192 190
223 225 228 229 228 228 229 231 233 235 236 236 237 239 239 239 241 242 243 243 243 244 245 245 245 245 245 244 244 250 254 252 251 252 252 251 251 251 250 250 251 253 254 255 255 257 257 256 255 253 252 254 257 259 262 263 265 267 270 273 276 280 283 287 291 295 298 301 304 304 302 303 304 307 311 314 320 317 299 276 242 205 191 192 196 199
224 226 227 229 228 228 228 230 232 234 236 237 237 239 241 241 242 242 242 242 241 240 241 242 243 243 244 244 241 242 249 252 251 251 251 250 249 249 249 249 251 254 255 254 255 258 258 257 257 255 253 255 258 260 262 263 264 267 270 273 277 280 284 288 292 295 298 301 303 302 301 302 305 309 312 314 319 314 293 263 225 200 188 186 191 197
226 227 227 227 227 228 228 230 233 235 237 238 239 239 240 241 241 242 241 239 238 238 238 240 241 241 239 240 238 234 238 245 248 249 250 249 247 247 249 250 250 254 256 257 258 260 259 259 259 257 254 255 259 261 261 262 264 267 270 273 277 280 284 288 292 295 298 301 303 301 301 302 305 311 312 313 316 311 287 251 219 204 194 188 189 192
228 228 228 228 228 229 229 230 233 236 237 238 237 237 238 239 239 238 237 237 237 238 239 240 241 242 239 238 237 234 235 239 243 246 249 249 248 248 249 250 251 254 256 258 259 260 259 259 260 258 255 256 259 260 260 261 263 267 270 274 277 281 285 289 291 295 299 301 302 300 300 303 306 311 312 311 313 309 283 245 218 206 200 195 195 195
230 231 231 231 231 231 231 231 231 233 234 234 235 234 234 234 235 234 234 235 236 238 240 241 243 244 242 239 236 235 235 236 239 243 246 247 247 247 247 248 250 253 255 257 259 260 260 259 259 257 255 256 258 259 259 260 263 267 270 274 278 281 285 288 291 295 298 300 300 299 300 303 306 311 312 310 311 308 283 247 222 208 202 200 201 202
232 233 233 234 234 234 234 234 234 235 236 236 235 233 230 229 231 232 232 234 235 236 237 240 241 241 241 240 239 238 238 239 241 243 243 242 243 244 245 248 250 252 255 258 260 262 262 260 258 257 256 256 257 257 258 260 263 267 270 274 278 282 285 288 291 294 298 299 299 299 300 303 306 310 312 309 308 306 286 251 229 213 204 202 204 205
232 234 234 234 235 235 236 236 236 237 237 236 235 232 227 226 227 229 229 231 234 235 235 235 237 239 239 240 241 242 242 243 244 244 241 240 242 244 245 248 249 252 256 259 260 261 261 259 258 257 256 256 255 255 257 260 263 267 271 274 278 282 284 288 290 294 296 297 298 298 299 302 305 308 311 308 305 304 289 258 235 219 209 205 206 207
232 233 234 234 235 235 235 235 235 236 235 234 232 229 226 226 226 226 225 227 231 233 233 233 235 237 239 240 241 242 244 245 244 243 241 240 241 244 247 249 250 252 255 256 257 257 258 258 258 257 257 256 254 254 256 259 263 267 271 274 278 281 284 287 290 292 295 296 297 297 299 302 304 306 309 308 304 302 293 267 241 225 214 210 210 212
231 232 232 233 234 234 234 234 234 234 234 232 228 224 223 224 226 225 224 225 229 232 232 233 234 235 237 239 240 242 245 246 245 242 240 239 241 243 246 248 250 252 253 253 254 255 255 256 256 256 256 255 253 254 256 259 263 267 271 274 277 280 283 286 288 291 294 295 296 297 299 301 303 304 306 307 304 300 295 276 249 231 220 216 216 218
229 230 232 233 233 234 234 234 233 233 232 230 227 224 221 222 224 225 226 227 230 232 233 234 234 234 235 237 240 243 246 248 246 242 239 238 240 242 244 247 249 251 252 253 253 253 253 254 255 255 256 254 253 254 256 259 263 266 270 273 277 280 282 285 287 290 293 294 295 296 298 299 301 303 305 305 303 299 295 283 260 238 226 222 222 222
227 228 229 230 231 231 231 231 231 232 231 230 229 227 224 225 226 226 227 229 231 233 233 234 235 235 235 236 239 241 244 246 247 245 240 238 240 243 244 247 250 251 253 254 254 251 251 252 253 254 255 254 253 255 257 259 262 265 269 273 276 279 281 283 286 288 291 293 294 295 297 298 300 303 304 303 302 299 295 287 270 248 234 228 226 226
227 226 226 227 228 228 228 229 229 230 230 230 230 228 226 226 227 227 227 228 230 231 232 233 234 235 236 237 238 238 239 241 243 245 245 243 244 246 247 250 252 253 254 254 253 251 250 251 252 253 254 254 253 255 257 259 261 265 269 273 275 278 280 282 284 287 290 292 294 295 297 298 299 302 302 301 300 299 295 289 278 260 243 234 230 228
226 225 225 224 224 223 223 225 227 226 225 224 226 229 229 228 228 228 227 226 227 229 230 232 233 235 236 237 237 236 236 237 239 241 244 246 247 249 251 253 253 253 252 252 251 250 250 251 252 253 254 254 253 255 256 258 262 266 269 272 274 276 279 281 284 287 289 292 294 295 297 298 298 300 300 299 299 298 296 291 283 270 254 242 235 231
226 225 224 222 221 219 218 220 221 221 220 218 218 222 225 225 227 229 228 228 228 228 230 231 233 235 235 235 236 235 235 237 239 241 243 245 247 249 251 252 253 253 251 251 250 250 250 251 252 254 254 253 253 255 257 259 262 266 269 271 273 276 278 280 283 286 289 291 293 295 296 297 298 298 298 298 298 297 295 291 285 276 264 251 241 235
222 221 220 219 217 217 217 217 216 217 218 217 216 217 218 219 223 228 229 229 228 229 230 231 232 234 235 234 235 236 236 238 241 244 246 248 250 251 250 250 252 253 252 251 250 250 251 252 253 254 254 253 253 255 257 259 262 265 268 270 272 275 277 280 283 286 288 290 292 294 295 296 297 297 297 297 297 296 294 291 287 279 269 259 249 241
221 219 218 217 215 214 214 214 214 214 216 217 218 220 220 218 221 225 226 225 225 227 228 228 229 232 233 232 232 233 235 237 239 241 244 248 251 253 251 250 251 252 252 252 252 251 252 252 253 254 254 253 254 255 258 260 263 265 266 269 271 274 277 280 283 285 287 289 291 293 295 296 296 297 297 296 296 295 293 291 288 282 273 264 255 247
211 214 214 214 213 211 209 210 212 213 214 215 217 220 222 220 221 225 225 223 222 223 224 224 226 229 230 228 228 231 233 235 237 238 240 244 250 253 252 251 250 251 252 254 253 253 253 253 253 254 254 254 254 256 258 261 263 264 266 269 271 274 277 280 282 284 286 288 290 292 294 295 295 296 296 296 295 294 293 292 290 285 278 268 260 253
194 200 204 204 205 206 205 207 210 211 212 213 215 217 218 218 219 222 223 222 222 223 223 224 225 227 227 225 227 231 234 235 236 237 239 244 249 251 251 251 252 252 253 254 254 253 254 254 254 254 254 255 255 257 259 261 263 265 267 269 272 275 277 279 281 283 285 287 289 291 292 293 294 295 295 295 294 294 294 293 292 289 283 273 264 257
178 184 191 196 200 203 205 207 208 208 209 212 213 214 214 215 216 218 218 219 221 222 225 227 227 228 227 226 228 232 236 237 238 239 241 244 246 248 249 251 252 253 253 254 254 254 254 254 255 255 256 256 257 258 260 262 263 265 267 270 272 275 277 279 281 283 285 287 288 290 291 292 293 293 294 294 294 294 293 293 292 291 287 280 270 261
170 175 183 190 195 198 202 205 206 207 210 212 212 213 214 214 214 213 214 216 220 223 226 229 230 231 231 231 231 233 235 238 240 242 243 244 243 244 247 250 251 252 252 253 254 255 255 255 256 257 257 258 259 260 262 263 265 266 268 270 273 275 277 279 281 283 285 286 288 289 290 291 292 292 293 293 293 293 293 292 292 291 290 286 278 267
176 181 186 190 195 198 201 203 204 207 211 212 211 211 213 213 211 210 212 216 219 221 223 224 226 229 231 233 235 236 237 239 241 243 245 244 243 244 246 248 250 251 252 253 254 255 256 257 257 257 258 259 260 261 263 264 266 268 270 272 274 276 278 279 281 283 284 286 287 288 290 291 292 292 292 292 292 292 292 292 291 291 290 288 282 273
184 188 190 193 198 202 205 205 205 207 211 211 208 207 208 210 210 211 214 217 218 219 220 221 223 226 229 232 236 240 242 242 242 244 245 245 245 245 246 248 250 252 253 254 254 255 256 257 257 258 259 260 261 262 264 265 267 269 271 273 274 276 278 279 281 283 284 285 287 288 289 290 291 291 291 292 292 292 291 292 291 291 291 288 283 275
191 192 192 195 199 201 204 206 207 207 210 212 210 209 210 212 213 215 217 220 221 221 222 222 224 226 229 233 237 241 242 242 242 244 246 247 247 247 247 248 250 251 253 254 254 255 256 257 258 259 260 261 263 264 265 266 268 270 271 273 275 276 278 279 281 283 284 286 287 288 289 289 290 291 291 291 291 291 292 292 292 291 290 287 282 275
195 195 196 199 200 201 203 205 206 208 210 212 213 213 215 217 219 219 221 223 225 226 226 226 228 230 233 236 239 240 241 242 243 245 246 247 248 248 248 249 251 252 252 253 254 255 256 258 259 260 262 263 264 265 266 267 268 270 271 273 275 277 278 280 281 283 284 285 286 287 288 289 290 290 291 291 292 292 292 292 292 291 288 285 280 275
196 198 201 203 204 205 206 206 208 209 212 214 216 217 218 220 221 222 222 223 225 227 228 228 230 232 234 237 239 241 242 243 244 245 246 248 249 250 250 251 252 253 253 254 254 255 257 259 260 261 262 263 264 266 267 268 270 271 273 275 276 277 279 280 281 282 284 285 286 287 288 289 290 290 291 292 292 292 292 292 291 289 286 283 278 274
198 200 203 205 207 209 209 210 211 212 214 217 219 220 221 222 223 223 224 225 227 228 229 231 232 234 236 238 240 241 243 243 245 246 247 249 250 251 251 252 254 254 255 255 256 257 258 259 261 262 264 265 266 267 269 270 272 273 275 276 277 278 279 280 282 283 284 285 286 287 288 289 290 291 291 292 292 292 291 290 289 287 285 281 278 274
204 206 207 209 210 212 214 215 215 215 217 220 222 223 224 225 225 226 227 229 230 231 232 234 235 236 238 239 241 242 243 244 246 247 249 250 251 252 252 254 255 257 258 259 259 259 259 260 262 263 265 266 268 269 270 272 273 274 275 276 278 279 280 281 283 284 285 286 287 288 289 290 290 291 291 291 291 291 290 289 288 287 285 282 279 275
211 212 214 215 216 217 219 221 221 221 222 224 225 226 227 228 228 229 230 231 232 233 234 235 236 238 239 241 242 244 245 246 247 248 250 252 253 254 254 255 257 258 260 261 262 262 262 263 263 265 266 267 269 270 272 273 274 275 276 278 279 280 281 283 284 285 286 288 289 289 290 290 291 291 291 290 290 289 288 287 287 286 284 283 281 278
214 216 217 219 220 221 223 224 225 225 225 226 227 229 230 231 231 232 233 234 235 236 237 238 239 241 242 243 244 245 246 248 249 249 251 252 254 256 256 257 258 259 261 262 264 265 266 266 267 268 269 270 271 272 273 274 275 277 278 279 280 282 283 284 286 287 288 289 289 290 291 291 291 291 290 290 289 288 287 287 286 285 284 283 282 280
Height
10618 10623 10630 10635 10637 10638 10641 10643 10645 10648 10652 10656 10659 10662 10666 10669 10671 10673 10682 10690 10684 10687 10691 10683 10684 10690 10693 10707 10718 10722 10719 10713 10720 10734 10739 10743 10745 10749 10755 10756 10759 10761 10759 10756 10756 10756 10757 10757 10757 10757 10757 10757 10758 10759 10760 10760 10760 10761 10762 10762 10762 10762 10762 10762 10763 10763 10763 10763 10763 10762 10760 10758 10755 10752 10749 10746 10744 10741 10738 10736 10733 10731 10730 10729 10729 10729
10614 10621 10627 10629 10630 10632 10635 10638 10640 10644 10648 10651 10655 10658 10662 10666 10668 10669 10675 10684 10680 10681 10684 10677 10680 10687 10688 10702 10713 10716 10715 10709 10716 10728 10732 10738 10741 10745 10750 10750 10753 10756 10752 10750 10750 10750 10751 10752 10752 10752 10752 10752 10753 10754 10754 10754 10755 10756 10757 10757 10757 10757 10758 10758 10758 10758 10758 10758 10758 10756 10755 10753 10750 10747 10745 10741 10739 10736 10734 10732 10730 10727 10726 10725 10725 10725
10612 10618 10622 10622 10624 10626 10630 10634 10635 10640 10643 10647 10652 10655 10658 10662 10664 10665 10668 10678 10678 10677 10678 10673 10677 10683 10683 10696 10707 10710 10712 10707 10710 10720 10726 10732 10737 10742 10744 10743 10749 10751 10745 10744 10745 10744 10746 10747 10747 10747 10747 10747 10748 10748 10749 10750 10751 10752 10752 10752 10752 10753 10753 10754 10753 10753 10753 10753 10752 10750 10749 10748 10745 10743 10740 10737 10734 10731 10729 10727 10726 10724 10722 10720 10720 10720
10608 10613 10614 10615 10618 10621 10626 10629 10630 10635 10640 10645 10649 10651 10654 10657 10661 10660 10661 10672 10678 10673 10671 10671 10674 10675 10678 10692 10700 10704 10707 10704 10705 10712 10720 10727 10732 10736 10737 10739 10745 10746 10743 10741 10739 10739 10741 10742 10742 10743 10743 10743 10744 10744 10745 10746 10747 10747 10747 10747 10748 10749 10749 10749 10749 10749 10748 10747 10746 10745 10744 10742 10740 10738 10736 10733 10730 10727 10724 10723 10721 10719 10718 10716 10716 10716
10602 10604 10605 10608 10612 10616 10621 10624 10626 10631 10637 10642 10644 10647 10649 10651 10656 10655 10655 10668 10674 10669 10666 10669 10671 10669 10676 10691 10695 10698 10701 10699 10699 10705 10714 10723 10728 10731 10732 10735 10739 10743 10746 10742 10734 10733 10734 10735 10736 10738 10738 10739 10740 10740 10741 10741 10742 10743 10743 10743 10744 10744 10744 10745 10745 10744 10743 10743 10741 10740 10738 10736 10734 10733 10731 10728 10725 10722 10720 10718 10717 10715 10713 10712 10711 10711
10595 10597 10600 10604 10608 10612 10617 10620 10623 10627 10634 10638 10640 10643 10642 10646 10652 10648 10652 10664 10668 10667 10664 10666 10668 10666 10676 10687 10689 10692 10694 10693 10695 10701 10709 10718 10724 10727 10728 10730 10733 10737 10742 10737 10730 10728 10727 10727 10730 10732 10734 10735 10736 10736 10736 10737 10737 10738 10738 10739 10739 10740 10740 10740 10740 10739 10738 10737 10736 10734 10732 10730 10729 10727 10725 10723 10719 10717 10715 10713 10711 10710 10709 10707 10706 10706
10589 10592 10596 10600 10604 10609 10613 10616 10620 10624 10631 10635 10635 10637 10637 10643 10647 10641 10650 10661 10662 10664 10661 10660 10665 10665 10672 10681 10682 10687 10688 10687 10692 10697 10703 10712 10717 10720 10722 10724 10726 10730 10732 10728 10725 10724 10723 10723 10724 10727 10729 10731 10731 10731 10732 10732 10733 10733 10734 10735 10735 10735 10735 10735 10735 10735 10733 10732 10730 10728 10727 10725 10723 10721 10719 10716 10713 10711 10710 10708 10706 10705 10704 10703 10702 10701
10585 10588 10592 10597 10600 10605 10610 10613 10617 10620 10627 10631 10629 10631 10634 10638 10640 10637 10647 10657 10657 10659 10656 10657 10664 10663 10668 10674 10676 10682 10683 10683 10689 10693 10697 10704 10709 10713 10716 10718 10720 10723 10723 10721 10720 10719 10719 10719 10720 10723 10725 10726 10727 10727 10727 10728 10728 10729 10730 10731 10731 10731 10731 10730 10730 10729 10728 10726 10724 10722 10720 10719 10717 10715 10712 10710 10707 10705 10703 10702 10700 10699 10699 10698 10697 10696
10579 10583 10588 10592 10596 10601 10607 10609 10611 10616 10623 10625 10623 10627 10629 10632 10634 10635 10642 10650 10653 10655 10654 10656 10661 10660 10664 10669 10671 10678 10680 10682 10688 10689 10692 10700 10705 10708 10710 10711 10713 10716 10716 10717 10715 10714 10715 10715 10715 10718 10720 10722 10722 10722 10723 10723 10724 10725 10726 10726 10726 10726 10726 10726 10725 10724 10723 10721 10719 10717 10714 10712 10710 10708 10706 10703 10701 10698 10696 10695 10694 10693 10693 10692 10691 10691
10572 10578 10581 10585 10591 10597 10601 10602 10606 10613 10617 10617 10618 10622 10624 10626 10631 10633 10637 10643 10649 10653 10652 10653 10657 10658 10659 10662 10667 10674 10677 10680 10683 10685 10689 10697 10702 10703 10704 10704 10706 10708 10711 10711 10709 10709 10710 10709 10710 10713 10716 10717 10717 10718 10718 10718 10719 10721 10721 10722 10722 10722 10721 10721 10720 10719 10717 10715 10713 10711 10708 10706 10703 10701 10699 10696 10693 10691 10689 10688 10686 10686 10685 10685 10687 10687
10568 10572 10574 10581 10588 10591 10594 10598 10602 10609 10611 10610 10614 10618 10619 10623 10626 10629 10632 10638 10646 10652 10650 10649 10653 10654 10653 10657 10664 10669 10672 10675 10678 10682 10688 10694 10697 10698 10701 10700 10698 10699 10702 10702 10702 10703 10704 10704 10706 10709 10711 10712 10712 10713 10714 10715 10715 10716 10717 10718 10717 10717 10717 10716 10715 10713 10712 10710 10707 10705 10702 10700 10697 10694 10692 10689 10686 10684 10682 10680 10679 10678 10678 10679 10681 10680
10562 10566 10571 10579 10584 10584 10590 10595 10598 10604 10605 10604 10609 10613 10614 10619 10622 10625 10629 10634 10643 10649 10647 10645 10647 10650 10650 10652 10659 10664 10665 10669 10675 10681 10685 10689 10692 10694 10697 10695 10691 10691 10693 10692 10693 10696 10699 10700 10702 10704 10706 10707 10708 10709 10710 10711 10712 10712 10713 10713 10712 10712 10712 10711 10710 10708 10706 10704 10702 10700 10697 10694 10691 10688 10685 10682 10679 10677 10675 10672 10671 10670 10669 10670 10671 10669
10557 10564 10568 10572 10577 10581 10587 10591 10593 10598 10601 10599 10604 10609 10611 10615 10618 10622 10626 10631 10640 10644 10642 10641 10641 10645 10646 10646 10654 10660 10660 10666 10675 10678 10678 10681 10685 10688 10691 10690 10686 10685 10685 10684 10686 10690 10693 10695 10696 10698 10700 10702 10703 10705 10706 10707 10708 10708 10707 10707 10707 10706 10706 10705 10704 10703 10701 10699 10696 10694 10691 10688 10685 10682 10679 10675 10672 10669 10667 10665 10663 10661 10660 10660 10660 10659
10551 10558 10562 10565 10574 10580 10583 10585 10589 10594 10597 10596 10601 10605 10608 10613 10617 10621 10623 10627 10634 10636 10636 10635 10632 10637 10643 10644 10652 10657 10657 10665 10672 10671 10669 10671 10675 10679 10682 10682 10679 10679 10680 10680 10682 10685 10688 10690 10691 10693 10695 10697 10698 10699 10700 10702 10703 10703 10702 10702 10702 10701 10700 10700 10699 10697 10696 10693 10691 10688 10685 10682 10678 10675 10672 10668 10665 10662 10659 10658 10655 10652 10651 10651 10649 10649
10545 10552 10557 10563 10572 10577 10578 10579 10584 10590 10590 10591 10596 10598 10603 10611 10615 10617 10618 10622 10627 10628 10629 10628 10625 10633 10642 10645 10650 10652 10655 10662 10665 10664 10663 10664 10667 10672 10674 10674 10673 10673 10675 10676 10679 10681 10683 10685 10687 10689 10690 10691 10692 10693 10695 10697 10698 10698 10697 10697 10697 10696 10695 10695 10694 10692 10690 10688 10686 10683 10680 10676 10673 10669 10666 10662 10658 10655 10652 10650 10647 10643 10642 10641 10640 10640
10541 10546 10552 10558 10564 10568 10572 10573 10578 10583 10583 10586 10590 10592 10601 10609 10609 10609 10612 10615 10617 10619 10623 10621 10622 10632 10640 10643 10647 10648 10652 10658 10658 10659 10660 10660 10662 10666 10668 10668 10667 10668 10670 10672 10674 10676 10678 10681 10683 10685 10686 10686 10686 10687 10689 10691 10692 10692 10692 10692 10692 10691 10691 10690 10689 10687 10685 10683 10680 10678 10674 10670 10667 10664 10660 10656 10653 10649 10646 10643 10639 10635 10633 10633 10633 10632
10535 10541 10544 10549 10555 10560 10565 10568 10569 10574 10579 10581 10584 10590 10599 10602 10598 10601 10606 10608 10610 10615 10619 10618 10622 10631 10636 10639 10643 10644 10648 10652 10653 10653 10654 10655 10657 10660 10661 10661 10662 10663 10664 10666 10668 10670 10673 10676 10678 10679 10680 10681 10681 10682 10684 10686 10687 10687 10687 10687 10687 10686 10686 10684 10684 10682 10680 10678 10675 10672 10669 10665 10662 10659 10655 10652 10648 10644 10640 10637 10633 10629 10627 10627 10627 10626
10528 10533 10534 10541 10550 10555 10560 10561 10559 10564 10572 10575 10581 10588 10591 10589 10590 10595 10601 10603 10607 10613 10616 10616 10620 10627 10629 10633 10638 10640 10642 10644 10645 10647 10648 10649 10651 10653 10654 10655 10656 10657 10658 10660 10662 10664 10668 10670 10672 10674 10674 10675 10675 10677 10679 10680 10681 10681 10681 10682 10681 10681 10680 10679 10679 10677 10675 10673 10670 10667 10664 10660 10657 10654 10650 10647 10643 10639 10635 10631 10627 10624 10623 10623 10623 10622
10519 10523 10526 10534 10543 10548 10551 10551 10551 10559 10569 10574 10579 10580 10579 10582 10588 10592 10596 10600 10604 10609 10611 10611 10615 10621 10623 10628 10632 10633 10635 10637 10638 10640 10642 10643 10644 10646 10647 10648 10649 10651 10652 10654 10657 10659 10661 10663 10666 10668 10669 10670 10671 10672 10674 10675 10675 10675 10676 10676 10676 10676 10675 10674 10674 10672 10670 10668 10665 10662 10659 10655 10652 10650 10646 10642 10638 10634 10630 10626 10623 10620 10620 10620 10620 10619
10512 10515 10520 10528 10534 10538 10542 10543 10546 10558 10567 10570 10571 10570 10573 10581 10586 10587 10591 10596 10599 10603 10604 10605 10610 10615 10617 10622 10624 10625 10628 10631 10632 10634 10636 10637 10638 10640 10641 10642 10643 10644 10646 10649 10651 10653 10655 10657 10659 10662 10663 10665 10666 10667 10668 10669 10670 10670 10670 10671 10671 10670 10670 10670 10669 10668 10666 10664 10661 10657 10654 10651 10648 10645 10641 10637 10634 10631 10626 10622 10620 10618 10618 10618 10620 10619
10506 10509 10513 10518 10525 10531 10539 10544 10548 10555 10560 10562 10563 10566 10572 10578 10580 10581 10585 10590 10593 10595 10597 10601 10605 10608 10612 10616 10617 10618 10623 10626 10626 10628 10630 10631 10633 10635 10636 10637 10637 10638 10641 10644 10646 10648 10649 10651 10653 10656 10658 10659 10660 10662 10663 10664 10664 10665 10665 10665 10665 10665 10665 10665 10664 10663 10661 10659 10656 10653 10650 10647 10644 10640 10636 10633 10630 10627 10623 10620 10618 10617 10617 10617 10619 10620
10501 10503 10504 10510 10520 10530 10539 10543 10543 10546 10551 10555 10558 10561 10567 10571 10572 10575 10580 10584 10587 10589 10593 10597 10597 10601 10606 10611 10614 10616 10619 10621 10620 10622 10625 10626 10629 10631 10630 10631 10632 10634 10637 10639 10640 10642 10644 10646 10648 10651 10653 10654 10655 10657 10657 10658 10659 10659 10660 10660 10660 10660 10660 10660 10659 10658 10657 10654 10652 10649 10645 10642 10639 10636 10632 10629 10627 10624 10621 10619 10618 10617 10616 10617 10619 10620
10494 10495 10498 10507 10518 10526 10532 10533 10533 10537 10543 10547 10550 10554 10559 10563 10565 10569 10573 10578 10582 10585 10588 10589 10589 10595 10602 10609 10615 10616 10614 10614 10615 10616 10619 10621 10623 10624 10624 10626 10627 10629 10632 10633 10635 10636 10638 10640 10644 10646 10648 10649 10650 10651 10652 10653 10653 10654 10654 10655 10655 10655 10655 10655 10654 10653 10652 10650 10647 10645 10641 10638 10635 10632 10629 10626 10624 10622 10619 10618 10618 10617 10616 10617 10618 10619
10487 10491 10498 10506 10513 10518 10521 10523 10525 10530 10534 10538 10544 10550 10554 10558 10562 10565 10569 10572 10575 10578 10580 10580 10582 10591 10599 10605 10612 10613 10608 10606 10608 10610 10612 10614 10616 10618 10619 10621 10622 10624 10626 10627 10629 10631 10633 10635 10638 10641 10643 10643 10644 10645 10647 10647 10648 10649 10649 10649 10650 10650 10650 10650 10650 10648 10647 10645 10643 10640 10637 10635 10632 10629 10626 10623 10621 10619 10617 10617 10617 10616 10616 10616 10617 10618
10485 10490 10496 10501 10506 10511 10515 10520 10523 10528 10531 10536 10543 10548 10550 10554 10557 10561 10564 10565 10566 10570 10573 10572 10575 10586 10594 10598 10603 10604 10600 10598 10600 10603 10606 10608 10611 10614 10615 10616 10617 10619 10620 10622 10623 10625 10628 10630 10633 10636 10637 10638 10639 10640 10641 10642 10642 10643 10644 10644 10644 10645 10646 10646 10645 10644 10642 10640 10638 10636 10633 10631 10628 10625 10623 10620 10618 10617 10615 10615 10616 10615 10615 10615 10616 10617
10481 10485 10491 10496 10501 10507 10513 10519 10523 10526 10528 10532 10538 10543 10545 10548 10551 10554 10556 10556 10560 10567 10567 10565 10570 10581 10590 10593 10595 10594 10593 10593 10596 10598 10601 10604 10607 10609 10610 10611 10612 10614 10615 10616 10618 10620 10623 10626 10628 10630 10631 10633 10634 10635 10636 10636 10637 10638 10638 10639 10639 10640 10641 10641 10640 10639 10638 10636 10634 10631 10629 10627 10625 10622 10620 10618 10616 10614 10613 10613 10614 10614 10613 10614 10614 10615
10477 10482 10488 10493 10497 10503 10508 10512 10515 10516 10519 10524 10530 10534 10538 10541 10542 10545 10548 10552 10559 10563 10560 10560 10568 10578 10584 10587 10587 10587 10588 10590 10592 10594 10597 10600 10602 10603 10604 10606 10607 10608 10610 10612 10614 10616 10618 10620 10622 10624 10626 10628 10628 10629 10630 10632 10632 10633 10633 10634 10635 10636 10636 10636 10635 10634 10633 10631 10629 10627 10625 10623 10621 10619 10617 10615 10613 10612 10610 10610 10611 10611 10611 10611 10612 10612
10474 10479 10484 10489 10493 10498 10501 10505 10509 10512 10516 10520 10523 10526 10531 10533 10534 10538 10545 10551 10554 10552 10551 10556 10565 10572 10576 10578 10579 10581 10584 10587 10589 10590 10592 10595 10596 10598 10600 10601 10602 10604 10606 10607 10609 10612 10613 10615 10617 10619 10621 10622 10623 10624 10625 10627 10627 10628 10628 10629 10630 10631 10631 10631 10630 10629 10628 10626 10625 10623 10621 10620 10618 10616 10614 10613 10611 10609 10608 10608 10608 10609 10609 10608 10609 10609
10469 10473 10479 10484 10488 10492 10495 10499 10503 10507 10510 10513 10515 10520 10525 10526 10528 10534 10541 10546 10543 10539 10544 10553 10560 10564 10568 10570 10573 10576 10579 10581 10584 10586 10587 10589 10591 10593 10595 10597 10599 10600 10602 10603 10605 10607 10609 10610 10612 10614 10615 10617 10618 10619 10621 10622 10622 10623 10623 10624 10625 10626 10626 10625 10625 10624 10623 10622 10620 10619 10617 10616 10614 10613 10611 10610 10608 10606 10605 10605 10605 10606 10606 10605 10605 10606
10464 10468 10474 10478 10481 10484 10488 10492 10496 10499 10502 10505 10509 10514 10518 10520 10524 10528 10532 10533 10530 10529 10539 10550 10555 10559 10562 10564 10567 10569 10572 10575 10578 10581 10583 10585 10587 10588 10591 10593 10595 10596 10597 10599 10601 10603 10604 10606 10607 10609 10610 10612 10613 10614 10616 10617 10617 10618 10619 10620 10620 10621 10620 10620 10620 10619 10618 10617 10616 10615 10613 10612 10611 10609 10608 10607 10605 10603 10602 10602 10602 10603 10603 10603 10603 10603
10458 10463 10468 10471 10474 10477 10481 10485 10489 10491 10495 10499 10502 10506 10511 10514 10516 10516 10518 10521 10522 10526 10538 10548 10551 10554 10557 10558 10560 10563 10565 10568 10571 10575 10578 10580 10582 10584 10586 10588 10590 10591 10593 10595 10596 10598 10599 10601 10602 10604 10606 10607 10608 10609 10611 10612 10612 10613 10614 10615 10615 10615 10615 10614 10614 10614 10613 10612 10611 10610 10609 10608 10607 10606 10605 10603 10602 10600 10599 10598 10598 10599 10599 10599 10599 10599
10453 10458 10461 10464 10468 10472 10477 10480 10482 10484 10487 10491 10494 10499 10502 10503 10504 10506 10512 10519 10523 10529 10539 10544 10546 10549 10551 10552 10553 10556 10558 10561 10565 10570 10573 10575 10577 10579 10581 10583 10585 10586 10588 10590 10591 10593 10595 10596 10597 10599 10601 10602 10603 10605 10606 10607 10608 10609 10609 10609 10610 10610 10609 10609 10609 10608 10608 10607 10606 10605 10604 10603 10603 10602 10601 10600 10599 10597 10595 10595 10594 10595 10595 10595 10595 10595
10448 10453 10455 10457 10462 10467 10471 10473 10475 10478 10482 10485 10491 10496 10498 10499 10501 10507 10515 10521 10524 10530 10536 10539 10541 10543 10544 10546 10548 10550 10553 10557 10560 10564 10567 10570 10572 10574 10576 10579 10580 10581 10583 10585 10586 10588 10589 10591 10593 10594 10596 10597 10599 10600 10601 10602 10603 10604 10604 10604 10605 10604 10604 10604 10603 10603 10602 10602 10601 10600 10600 10599 10598 10598 10597 10596 10595 10594 10592 10591 10590 10590 10591 10590 10590 10591
10442 10446 10448 10452 10458 10463 10466 10468 10470 10474 10478 10484 10489 10492 10493 10496 10500 10507 10514 10518 10521 10525 10529 10532 10534 10536 10539 10542 10544 10546 10549 10553 10556 10559 10562 10565 10568 10570 10572 10573 10575 10576 10578 10579 10580 10582 10584 10586 10588 10590 10591 10593 10594 10595 10596 10597 10598 10598 10599 10599 10599 10598 10598 10598 10598 10597 10597 10596 10596 10595 10595 10594 10593 10593 10593 10592 10591 10590 10589 10587 10586 10586 10586 10586 10586 10586
10436 10440 10444 10448 10453 10458 10462 10463 10466 10471 10477 10481 10484 10486 10489 10493 10497 10501 10506 10511 10514 10517 10521 10524 10527 10530 10534 10537 10539 10542 10546 10549 10552 10555 10558 10561 10563 10564 10566 10568 10569 10570 10571 10572 10575 10577 10579 10581 10583 10585 10586 10588 10589 10590 10591 10592 10592 10592 10593 10593 10593 10592 10593 10592 10592 10592 10591 10591 10590 10590 10589 10589 10588 10588 10588 10587 10587 10586 10585 10584 10582 10581 10581 10581 10581 10581
10432 10436 10440 10444 10448 10454 10458 10460 10464 10469 10473 10476 10479 10482 10486 10489 10490 10493 10498 10503 10507 10510 10515 10519 10522 10525 10529 10532 10535 10538 10542 10545 10549 10551 10554 10556 10558 10559 10561 10562 10563 10564 10565 10567 10569 10572 10574 10576 10577 10580 10582 10583 10584 10584 10585 10586 10586 10587 10588 10587 10586 10587 10587 10586 10586 10586 10585 10585 10584 10584 10584 10583 10582 10582 10582 10582 10581 10581 10580 10579 10578 10577 10576 10575 10576 10576
10427 10431 10436 10440 10445 10450 10454 10457 10461 10464 10467 10471 10474 10478 10481 10484 10485 10489 10494 10498 10501 10506 10510 10515 10518 10521 10524 10528 10531 10535 10538 10542 10545 10547 10549 10551 10552 10554 10556 10557 10558 10559 10560 10562 10564 10566 10568 10570 10572 10574 10576 10578 10578 10578 10578 10579 10580 10581 10581 10581 10581 10581 10580 10580 10580 10580 10579 10579 10578 10578 10577 10577 10576 10576 10576 10575 10575 10575 10574 10574 10573 10572 10570 10570 10570 10570
10424 10428 10433 10437 10441 10445 10450 10454 10456 10459 10463 10467 10470 10473 10476 10480 10484 10487 10489 10493 10497 10501 10506 10510 10514 10517 10521 10524 10527 10530 10534 10537 10540 10542 10544 10546 10547 10549 10551 10552 10553 10554 10555 10557 10559 10561 10562 10565 10567 10568 10570 10572 10573 10572 10572 10573 10574 10575 10575 10575 10574 10574 10574 10574 10574 10574 10573 10573 10572 10571 10571 10570 10570 10569 10569 10569 10568 10568 10567 10567 10567 10566 10565 10564 10563 10563
10422 10426 10430 10434 10438 10442 10447 10449 10452 10455 10459 10463 10467 10469 10473 10477 10481 10483 10485 10490 10494 10498 10502 10507 10511 10514 10517 10520 10523 10527 10530 10532 10534 10536 10539 10541 10542 10544 10546 10547 10548 10549 10551 10552 10554 10555 10557 10559 10560 10562 10564 10566 10567 10567 10567 10567 10567 10568 10568 10568 10568 10568 10568 10568 10567 10567 10567 10566 10566 10565 10564 10564 10563 10562 10562 10562 10561 10560 10560 10559 10559 10559 10559 10558 10557 10556
10418 10422 10426 10430 10433 10437 10441 10444 10447 10452 10456 10460 10463 10465 10469 10473 10476 10479 10484 10489 10492 10495 10499 10503 10506 10509 10513 10516 10520 10524 10525 10526 10528 10531 10534 10536 10538 10539 10541 10542 10543 10544 10546 10547 10548 10550 10551 10553 10555 10557 10559 10560 10561 10561 10561 10561 10561 10562 10562 10562 10562 10561 10561 10561 10560 10560 10560 10560 10559 10558 10558 10557 10556 10555 10555 10554 10553 10552 10552 10551 10551 10551 10551 10551 10550 10549
10417 10421 10424 10427 10430 10434 10437 10441 10444 10449 10452 10455 10458 10462 10465 10469 10472 10478 10483 10487 10489 10492 10496 10499 10502 10506 10510 10513 10516 10518 10519 10521 10524 10527 10529 10531 10532 10534 10536 10537 10538 10539 10540 10541 10543 10544 10546 10547 10549 10551 10553 10554 10555 10554 10554 10555 10556 10556 10556 10556 10555 10555 10554 10554 10553 10553 10553 10552 10552 10551 10550 10550 10549 10548 10547 10546 10545 10544 10543 10543 10542 10542 10542 10542 10542 10540
10418 10421 10424 10426 10429 10433 10436 10439 10444 10447 10448 10450 10455 10459 10463 10467 10473 10478 10482 10484 10486 10490 10493 10495 10499 10503 10506 10509 10511 10512 10515 10518 10520 10522 10523 10525 10527 10529 10530 10532 10533 10534 10535 10536 10537 10539 10540 10542 10544 10546 10547 10548 10548 10548 10548 10548 10549 10550 10549 10549 10549 10549 10548 10547 10546 10546 10545 10545 10544 10543 10542 10542 10541 10540 10539 10538 10537 10536 10535 10534 10533 10533 10532 10532 10532 10531
10417 10419 10423 10426 10429 10432 10435 10438 10442 10444 10445 10448 10453 10458 10463 10468 10473 10476 10478 10480 10483 10486 10489 10492 10495 10499 10501 10503 10505 10508 10511 10514 10515 10516 10518 10520 10522 10523 10525 10526 10527 10528 10529 10531 10532 10533 10535 10537 10538 10540 10541 10541 10541 10542 10542 10542 10542 10543 10543 10543 10543 10542 10541 10540 10539 10539 10538 10537 10536 10535 10534 10533 10532 10531 10530 10529 10528 10527 10526 10526 10525 10524 10523 10522 10521 10520
10414 10418 10421 10425 10428 10432 10435 10438 10440 10442 10444 10448 10453 10458 10462 10465 10468 10471 10472 10474 10478 10481 10485 10488 10491 10494 10496 10498 10501 10504 10507 10509 10511 10512 10513 10514 10516 10518 10519 10520 10522 10523 10524 10526 10527 10528 10530 10531 10532 10533 10534 10535 10535 10536 10536 10537 10536 10536 10536 10536 10535 10535 10534 10533 10532 10531 10530 10529 10528 10527 10526 10524 10523 10522 10521 10520 10519 10518 10517 10516 10515 10514 10513 10512 10511 10510
10413 10416 10419 10422 10425 10428 10431 10434 10437 10440 10443 10446 10450 10454 10458 10460 10463 10466 10468 10470 10474 10478 10481 10483 10486 10489 10491 10494 10497 10500 10502 10504 10506 10507 10508 10509 10511 10512 10514 10515 10517 10518 10519 10520 10521 10522 10523 10525 10526 10527 10528 10529 10530 10530 10530 10531 10530 10530 10529 10528 10528 10527 10527 10526 10525 10524 10522 10521 10519 10518 10517 10515 10514 10513 10511 10510 10509 10508 10507 10506 10505 10504 10503 10502 10501 10500
10411 10415 10417 10419 10422 10424 10427 10430 10433 10437 10440 10443 10447 10451 10455 10458 10461 10463 10465 10468 10471 10474 10477 10479 10482 10485 10487 10490 10493 10495 10497 10499 10501 10502 10503 10504 10505 10507 10508 10510 10511 10512 10513 10513 10515 10517 10518 10519 10520 10521 10521 10522 10523 10523 10523 10524 10524 10523 10522 10521 10521 10520 10519 10519 10517 10516 10514 10513 10511 10509 10508 10506 10504 10503 10501 10500 10499 10498 10496 10495 10494 10493 10493 10492 10491 10491
10411 10413 10415 10418 10421 10423 10426 10428 10431 10435 10438 10441 10445 10449 10452 10455 10457 10459 10462 10465 10468 10470 10473 10476 10478 10481 10483 10486 10488 10490 10492 10494 10495 10497 10498 10499 10500 10502 10503 10504 10504 10505 10506 10507 10509 10511 10513 10513 10513 10514 10515 10516 10516 10516 10516 10516 10516 10515 10515 10514 10513 10513 10512 10511 10509 10508 10506 10505 10503 10501 10499 10497 10495 10494 10492 10490 10489 10487 10486 10484 10483 10483 10482 10482 10482 10481
10409 10411 10414 10417 10419 10422 10425 10427 10430 10434 10437 10440 10443 10446 10449 10451 10454 10456 10459 10462 10464 10467 10470 10472 10475 10477 10479 10481 10483 10485 10487 10489 10491 10492 10494 10494 10495 10496 10497 10498 10498 10498 10499 10501 10503 10506 10507 10507 10507 10508 10508 10509 10509 10509 10509 10508 10508 10508 10507 10506 10505 10504 10503 10502 10501 10499 10498 10496 10494 10492 10490 10488 10486 10484 10482 10480 10478 10476 10475 10473 10472 10472 10471 10471 10471 10471
10408 10410 10413 10416 10419 10421 10424 10426 10429 10433 10436 10438 10441 10443 10445 10448 10450 10453 10456 10458 10461 10463 10465 10468 10470 10472 10474 10476 10478 10480 10482 10485 10486 10488 10489 10489 10489 10490 10491 10492 10492 10493 10494 10495 10497 10499 10500 10501 10501 10502 10502 10502 10502 10502 10501 10501 10500 10500 10499 10498 10497 10496 10495 10493 10492 10490 10489 10487 10485 10483 10481 10479 10476 10474 10472 10470 10467 10465 10464 10462 10461 10461 10460 10460 10460 10460
10408 10410 10413 10416 10419 10421 10424 10426 10429 10432 10434 10436 10438 10440 10442 10444 10447 10450 10452 10454 10456 10458 10461 10463 10465 10467 10470 10472 10474 10476 10478 10480 10481 10483 10484 10483 10483 10484 10486 10487 10487 10488 10489 10489 10490 10491 10493 10494 10495 10495 10495 10495 10495 10494 10494 10493 10492 10491 10491 10490 10489 10487 10486 10484 10483 10481 10479 10477 10475 10473 10470 10468 10466 10463 10461 10459 10457 10455 10453 10452 10451 10450 10449 10448 10448 10447
10406 10408 10411 10414 10416 10419 10421 10423 10424 10426 10428 10431 10433 10435 10438 10440 10443 10446 10448 10450 10452 10454 10456 10458 10461 10463 10465 10467 10469 10471 10473 10474 10476 10478 10478 10478 10478 10479 10480 10481 10482 10482 10483 10483 10484 10484 10485 10486 10487 10487 10487 10487 10487 10486 10486 10485 10484 10483 10482 10481 10480 10479 10477 10475 10474 10472 10470 10467 10465 10462 10460 10457 10455 10452 10450 10448 10447 10445 10443 10442 10440 10439 10438 10437 10436 10435